Student's Login

Local Time

LGIR WEATHER

[source: ADDS]
METAR
LGIR 060150Z 33013KT 9999 FEW018 BKN030 14/06 Q1024 NOSIG =
TAF LGIR 052300Z 0600/0624 34012KT 9999 FEW018 BKN030
TAF
TAF LGIR 052300Z 0600/0624 34012KT 9999 FEW018 BKN030 =

Czech sport aircraft

Cretan Eagle Aviation Ltd. is proud to be appointed as an authorized Czech Sport Aircraft Promoter for Greece
and Cyprus. Please click on the link or give us a call for any additional information on Czech Sport Aircraft.

 

 

On-line PPL QUIZ

Student members can join our free on-line database to practice on PPL quizzes and get ready for the real
exams. Becoming a member and getting access to our system is FREE for all of our students.

 

Paypal Verified

Payments for any Course can be made by Bank Transfer, Cash and PayPal secure payment.

 

Go to top